| time (UTC) | temp F | wind direction | speed knots | gust knots | rain 1hr in | rain 24hr in | rain mn in | humidity % | barometer mb |
| 20260506040526 | 49 | 210 | 0.0 | 1.7 | 0.00 | 0.27 | 0.22 | 99 | 1005.3 |
| 20260506040029 | 49 | 210 | 0.0 | 2.6 | 0.00 | 0.27 | 0.22 | 99 | 1005.3 |
| 20260506035523 | 49 | 209 | 0.0 | 5.2 | 0.00 | 0.27 | 0.22 | 99 | 1005.1 |
| 20260506035022 | 49 | 244 | 0.9 | 5.2 | 0.00 | 0.27 | 0.22 | 99 | 1005.2 |
| 20260506034522 | 49 | 230 | 0.9 | 4.3 | 0.00 | 0.27 | 0.22 | 99 | 1005.3 |
| 20260506034021 | 49 | 252 | 1.7 | 4.3 | 0.00 | 0.27 | 0.22 | 99 | 1005.3 |
| 20260506033521 | 49 | 246 | 0.9 | 4.3 | 0.00 | 0.27 | 0.22 | 99 | 1005.2 |
| 20260506033021 | 49 | 236 | 0.0 | 4.3 | 0.00 | 0.27 | 0.22 | 99 | 1005.2 |
| 20260506032521 | 49 | 239 | 0.9 | 4.3 | 0.00 | 0.27 | 0.22 | 99 | 1005.2 |
| 20260506032020 | 49 | 234 | 0.9 | 3.5 | 0.00 | 0.27 | 0.22 | 99 | 1005.4 |
| 20260506031520 | 49 | 200 | 0.9 | 6.1 | 0.00 | 0.27 | 0.22 | 98 | 1005.3 |
| 20260506031020 | 49 | 237 | 2.6 | 6.1 | 0.00 | 0.27 | 0.22 | 99 | 1005.5 |
| 20260506030520 | 49 | 223 | 0.0 | 4.3 | 0.00 | 0.27 | 0.22 | 99 | 1005.3 |
| 20260506030021 | 49 | 202 | 0.9 | 2.6 | 0.00 | 0.27 | 0.22 | 98 | 1005.3 |
| 20260506025518 | 49 | 201 | 0.0 | 3.5 | 0.00 | 0.27 | 0.22 | 98 | 1005.4 |
| 20260506025018 | 50 | 202 | 0.9 | 3.5 | 0.00 | 0.27 | 0.22 | 98 | 1005.4 |
| 20260506024518 | 50 | 223 | 0.0 | 3.5 | 0.00 | 0.27 | 0.22 | 98 | 1005.4 |
| 20260506024017 | 50 | 223 | 0.9 | 5.2 | 0.00 | 0.27 | 0.22 | 98 | 1005.4 |
| 20260506023517 | 50 | 172 | 0.9 | 5.2 | 0.00 | 0.27 | 0.22 | 98 | 1005.4 |
| 20260506023029 | 50 | 169 | 2.6 | 5.2 | 0.00 | 0.27 | 0.22 | 98 | 1005.4 |
| 20260506022515 | 50 | 236 | 0.9 | 4.3 | 0.00 | 0.27 | 0.22 | 98 | 1005.4 |
| 20260506022021 | 50 | 191 | 0.9 | 4.3 | 0.00 | 0.27 | 0.22 | 98 | 1005.5 |
| 20260506021521 | 50 | 229 | 0.0 | 2.6 | 0.00 | 0.27 | 0.22 | 98 | 1005.6 |
| 20260506021018 | 50 | 232 | 0.9 | 2.6 | 0.00 | 0.27 | 0.22 | 98 | 1005.3 |
| 20260506020512 | 50 | 232 | 0.0 | 2.6 | 0.00 | 0.27 | 0.22 | 98 | 1005.5 |
| 20260506020014 | 50 | 190 | 0.0 | 2.6 | 0.00 | 0.27 | 0.22 | 98 | 1005.6 |
| 20260506015513 | 50 | 188 | 0.0 | 1.7 | 0.00 | 0.27 | 0.22 | 98 | 1005.5 |
| 20260506015013 | 50 | 188 | 0.0 | 2.6 | 0.00 | 0.27 | 0.22 | 98 | 1005.5 |
| 20260506014513 | 50 | 188 | 0.0 | 2.6 | 0.00 | 0.27 | 0.22 | 98 | 1005.5 |
| 20260506014013 | 50 | 184 | 0.0 | 0.0 | 0.00 | 0.27 | 0.22 | 98 | 1005.4 |
| 20260506013511 | 50 | 184 | 0.0 | 0.0 | 0.00 | 0.27 | 0.22 | 98 | 1005.5 |
| 20260506013014 | 50 | 184 | 0.0 | 0.0 | 0.00 | 0.27 | 0.22 | 98 | 1005.5 |
| 20260506012511 | 50 | 184 | 0.0 | 0.0 | 0.00 | 0.27 | 0.22 | 98 | 1005.6 |
| 20260506012012 | 50 | 184 | 0.0 | 0.0 | 0.01 | 0.27 | 0.22 | 98 | 1005.7 |
| 20260506011511 | 50 | 184 | 0.0 | 0.0 | 0.01 | 0.27 | 0.22 | 98 | 1005.6 |
| 20260506011010 | 50 | 184 | 0.0 | 0.0 | 0.01 | 0.27 | 0.22 | 98 | 1005.6 |
| 20260506010510 | 50 | 184 | 0.0 | 0.0 | 0.01 | 0.27 | 0.22 | 98 | 1005.6 |
| 20260506010013 | 50 | 184 | 0.0 | 0.9 | 0.01 | 0.27 | 0.22 | 98 | 1005.7 |
| 20260506005510 | 50 | 184 | 0.0 | 0.9 | 0.01 | 0.27 | 0.22 | 97 | 1005.8 |
| 20260506005011 | 50 | 139 | 0.0 | 0.0 | 0.01 | 0.27 | 0.22 | 97 | 1005.8 |
| 20260506004512 | 50 | 139 | 0.0 | 0.0 | 0.01 | 0.27 | 0.22 | 97 | 1005.8 |
| 20260506004013 | 50 | 111 | 0.0 | 0.0 | 0.02 | 0.27 | 0.22 | 97 | 1005.8 |
| 20260506003512 | 50 | 107 | 0.0 | 0.0 | 0.02 | 0.27 | 0.22 | 97 | 1005.7 |
| 20260506003013 | 50 | 84 | 0.0 | 0.0 | 0.02 | 0.27 | 0.22 | 97 | 1005.5 |
| 20260506002507 | 50 | 84 | 0.0 | 0.0 | 0.02 | 0.27 | 0.22 | 97 | 1005.3 |
| 20260506002007 | 50 | 84 | 0.0 | 0.0 | 0.02 | 0.26 | 0.21 | 97 | 1005.3 |
| 20260506001508 | 50 | 84 | 0.0 | 2.6 | 0.02 | 0.26 | 0.21 | 97 | 1005.1 |
| 20260506001007 | 50 | 84 | 0.9 | 2.6 | 0.03 | 0.26 | 0.21 | 97 | 1005.2 |
| 20260506000507 | 50 | 84 | 0.9 | 1.7 | 0.05 | 0.26 | 0.21 | 97 | 1005.0 |
| 20260506000006 | 51 | 84 | 0.0 | 2.6 | 0.06 | 0.26 | 0.21 | 97 | 1004.9 |
| 20260505235508 | 51 | 84 | 0.9 | 2.6 | 0.06 | 0.26 | 0.21 | 96 | 1005.1 |
| 20260505235006 | 51 | 80 | 0.9 | 2.6 | 0.07 | 0.26 | 0.21 | 96 | 1005.1 |
| 20260505234505 | 51 | 88 | 0.0 | 2.6 | 0.08 | 0.26 | 0.21 | 96 | 1005.2 |
| 20260505234004 | 51 | 92 | 0.9 | 3.5 | 0.09 | 0.25 | 0.20 | 96 | 1005.3 |
| 20260505233506 | 51 | 111 | 0.9 | 3.5 | 0.09 | 0.25 | 0.20 | 96 | 1005.4 |
| 20260505233003 | 51 | 101 | 0.0 | 2.6 | 0.10 | 0.24 | 0.20 | 96 | 1005.6 |
| 20260505232503 | 51 | 101 | 0.0 | 9.6 | 0.12 | 0.24 | 0.20 | 96 | 1005.7 |
| 20260505232001 | 51 | 72 | 0.0 | 9.6 | 0.13 | 0.24 | 0.19 | 96 | 1005.8 |
| 20260505231501 | 51 | 301 | 0.0 | 4.3 | 0.16 | 0.24 | 0.19 | 96 | 1005.8 |
| 20260505231101 | 51 | 5 | 0.9 | 6.1 | 0.17 | 0.23 | 0.18 | 96 | 1006.0 |
| 20260505230659 | 51 | 223 | 0.9 | 6.1 | 0.17 | 0.22 | 0.17 | 96 | 1006.2 |
| 20260505230058 | 51 | 251 | 0.9 | 6.1 | 0.16 | 0.20 | 0.16 | 96 | 1006.5 |
| 20260505225603 | 51 | 274 | 0.9 | 3.5 | 0.15 | 0.20 | 0.15 | 96 | 1006.8 |
| 20260505225056 | 51 | 80 | 0.9 | 3.5 | 0.15 | 0.19 | 0.14 | 96 | 1006.8 |
| 20260505224559 | 52 | 70 | 0.0 | 5.2 | 0.16 | 0.18 | 0.13 | 96 | 1007.0 |
| 20260505224055 | 52 | 70 | 0.9 | 8.7 | 0.16 | 0.17 | 0.12 | 96 | 1007.1 |
| 20260505223554 | 52 | 237 | 0.0 | 8.7 | 0.16 | 0.16 | 0.11 | 96 | 1007.4 |
| 20260505223057 | 52 | 246 | 1.7 | 6.1 | 0.14 | 0.14 | 0.09 | 96 | 1007.5 |
| 20260505222557 | 52 | 252 | 2.6 | 6.1 | 0.13 | 0.13 | 0.08 | 95 | 1007.6 |
| 20260505222052 | 52 | 238 | 0.9 | 7.8 | 0.10 | 0.10 | 0.06 | 95 | 1007.7 |
| 20260505221551 | 52 | 291 | 1.7 | 7.8 | 0.08 | 0.08 | 0.03 | 95 | 1007.6 |
| 20260505221052 | 53 | 256 | 1.7 | 7.0 | 0.06 | 0.06 | 0.01 | 95 | 1007.4 |
| 20260505220548 | 53 | 207 | 0.9 | 7.8 | 0.05 | 0.05 | 0.00 | 95 | 1007.0 |
| 20260505220051 | 53 | 266 | 1.7 | 8.7 | 0.05 | 0.05 | 0.00 | 94 | 1006.9 |
| 20260505215647 | 53 | 294 | 4.3 | 8.7 | 0.05 | 0.05 | 0.05 | 93 | 1006.9 |
| 20260505215045 | 54 | 225 | 1.7 | 10.4 | 0.03 | 0.03 | 0.03 | 93 | 1007.0 |
| 20260505214554 | 55 | 240 | 3.5 | 10.4 | 0.02 | 0.02 | 0.02 | 92 | 1006.8 |
| 20260505214044 | 56 | 199 | 3.5 | 11.3 | 0.01 | 0.01 | 0.01 | 92 | 1006.8 |
| 20260505213543 | 56 | 232 | 1.7 | 11.3 | 0.00 | 0.00 | 0.00 | 90 | 1006.8 |
| 20260505213043 | 56 | 178 | 0.9 | 5.2 | 0.00 | 0.00 | 0.00 | 89 | 1006.3 |
| 20260505212541 | 56 | 23 | 0.9 | 8.7 | 0.00 | 0.00 | 0.00 | 89 | 1005.7 |
| 20260505212040 | 56 | 5 | 2.6 | 8.7 | 0.00 | 0.00 | 0.00 | 89 | 1005.4 |
| 20260505211540 | 56 | 77 | 1.7 | 7.0 | 0.00 | 0.00 | 0.00 | 88 | 1005.2 |
| 20260505211043 | 56 | 336 | 1.7 | 7.0 | 0.00 | 0.00 | 0.00 | 88 | 1005.0 |
| 20260505210539 | 56 | 63 | 1.7 | 5.2 | 0.00 | 0.00 | 0.00 | 88 | 1005.0 |
| 20260505210043 | 57 | 75 | 2.6 | 9.6 | 0.00 | 0.00 | 0.00 | 88 | 1005.0 |
| 20260505205540 | 57 | 73 | 1.7 | 8.7 | 0.00 | 0.00 | 0.00 | 88 | 1005.1 |
| 20260505205038 | 57 | 71 | 1.7 | 8.7 | 0.00 | 0.00 | 0.00 | 88 | 1004.9 |
| 20260505204538 | 57 | 49 | 2.6 | 9.6 | 0.00 | 0.00 | 0.00 | 87 | 1004.8 |
| 20260505204040 | 57 | 69 | 2.6 | 9.6 | 0.00 | 0.00 | 0.00 | 87 | 1004.9 |
| 20260505203540 | 57 | 76 | 2.6 | 9.6 | 0.00 | 0.00 | 0.00 | 88 | 1005.1 |
| 20260505203054 | 57 | 96 | 2.6 | 7.8 | 0.00 | 0.00 | 0.00 | 87 | 1005.1 |
| 20260505202538 | 57 | 54 | 2.6 | 8.7 | 0.00 | 0.00 | 0.00 | 87 | 1005.2 |
| 20260505202037 | 57 | 61 | 2.6 | 10.4 | 0.00 | 0.00 | 0.00 | 87 | 1005.0 |
| 20260505201543 | 57 | 55 | 2.6 | 9.6 | 0.00 | 0.00 | 0.00 | 88 | 1004.8 |
| 20260505201036 | 57 | 69 | 3.5 | 9.6 | 0.00 | 0.00 | 0.00 | 88 | 1004.9 |
| 20260505200536 | 57 | 26 | 3.5 | 8.7 | 0.00 | 0.00 | 0.00 | 88 | 1004.9 |
| 20260505200041 | 57 | 83 | 3.5 | 9.6 | 0.00 | 0.00 | 0.00 | 88 | 1005.1 |
| 20260505195535 | 57 | 82 | 3.5 | 13.9 | 0.00 | 0.00 | 0.00 | 88 | 1005.2 |
| 20260505195035 | 57 | 103 | 3.5 | 13.9 | 0.00 | 0.00 | 0.00 | 88 | 1005.3 |
| 20260505194537 | 57 | 80 | 3.5 | 7.8 | 0.00 | 0.00 | 0.00 | 88 | 1005.2 |
| 20260505194035 | 57 | 136 | 2.6 | 10.4 | 0.00 | 0.00 | 0.00 | 88 | 1005.5 |
| 20260505193536 | 57 | 99 | 2.6 | 10.4 | 0.00 | 0.00 | 0.00 | 88 | 1005.5 |
| 20260505193035 | 58 | 85 | 2.6 | 7.0 | 0.00 | 0.00 | 0.00 | 87 | 1005.5 |
| 20260505192534 | 58 | 86 | 2.6 | 8.7 | 0.00 | 0.00 | 0.00 | 87 | 1005.5 |
| 20260505192037 | 58 | 91 | 1.7 | 8.7 | 0.00 | 0.00 | 0.00 | 87 | 1005.4 |
| 20260505191534 | 58 | 109 | 2.6 | 7.0 | 0.00 | 0.00 | 0.00 | 87 | 1005.2 |
| 20260505191035 | 58 | 93 | 2.6 | 7.0 | 0.00 | 0.00 | 0.00 | 87 | 1005.2 |
| 20260505190533 | 58 | 78 | 2.6 | 7.0 | 0.00 | 0.00 | 0.00 | 86 | 1005.1 |
| 20260505190037 | 58 | 93 | 2.6 | 7.0 | 0.00 | 0.00 | 0.00 | 86 | 1005.2 |
| 20260505185532 | 58 | 78 | 2.6 | 8.7 | 0.00 | 0.00 | 0.00 | 86 | 1005.2 |
| 20260505185032 | 59 | 93 | 2.6 | 8.7 | 0.00 | 0.00 | 0.00 | 86 | 1005.2 |
| 20260505184536 | 59 | 186 | 2.6 | 7.8 | 0.00 | 0.00 | 0.00 | 86 | 1005.2 |
| 20260505184034 | 59 | 90 | 1.7 | 8.7 | 0.00 | 0.00 | 0.00 | 85 | 1005.2 |
| 20260505183530 | 59 | 89 | 2.6 | 8.7 | 0.00 | 0.00 | 0.00 | 85 | 1005.3 |
| 20260505183030 | 59 | 82 | 2.6 | 7.8 | 0.00 | 0.00 | 0.00 | 85 | 1005.4 |
| 20260505182529 | 59 | 39 | 2.6 | 7.8 | 0.00 | 0.00 | 0.00 | 85 | 1005.4 |
| 20260505182028 | 59 | 88 | 1.7 | 9.6 | 0.00 | 0.00 | 0.00 | 84 | 1005.4 |
| 20260505181535 | 60 | 91 | 1.7 | 9.6 | 0.00 | 0.00 | 0.00 | 84 | 1005.5 |
| 20260505181028 | 60 | 82 | 3.5 | 8.7 | 0.00 | 0.00 | 0.00 | 84 | 1005.5 |
| 20260505180527 | 60 | 68 | 1.7 | 10.4 | 0.00 | 0.00 | 0.00 | 84 | 1005.6 |
| 20260505180027 | 60 | 95 | 1.7 | 8.7 | 0.00 | 0.00 | 0.00 | 84 | 1005.6 |
| 20260505175528 | 60 | 67 | 1.7 | 6.1 | 0.00 | 0.00 | 0.00 | 83 | 1005.7 |
| 20260505175026 | 61 | 67 | 1.7 | 7.0 | 0.00 | 0.00 | 0.00 | 83 | 1005.8 |
| 20260505174535 | 61 | 101 | 1.7 | 7.0 | 0.00 | 0.00 | 0.00 | 83 | 1005.9 |
| 20260505174026 | 61 | 57 | 1.7 | 6.1 | 0.00 | 0.00 | 0.00 | 83 | 1005.9 |
| 20260505173525 | 61 | 85 | 1.7 | 7.0 | 0.00 | 0.00 | 0.00 | 83 | 1006.0 |
| 20260505173025 | 61 | 94 | 1.7 | 7.8 | 0.00 | 0.00 | 0.00 | 83 | 1006.0 |
| 20260505172525 | 61 | 97 | 0.9 | 7.0 | 0.00 | 0.00 | 0.00 | 83 | 1006.0 |
| 20260505172024 | 61 | 28 | 1.7 | 7.0 | 0.00 | 0.00 | 0.00 | 82 | 1006.0 |
| 20260505171524 | 61 | 93 | 2.6 | 7.0 | 0.00 | 0.00 | 0.00 | 82 | 1006.1 |
| 20260505171025 | 61 | 67 | 0.9 | 4.3 | 0.00 | 0.00 | 0.00 | 82 | 1006.1 |
| 20260505170523 | 61 | 63 | 1.7 | 5.2 | 0.00 | 0.00 | 0.00 | 81 | 1006.2 |
| 20260505170024 | 62 | 80 | 1.7 | 8.7 | 0.00 | 0.00 | 0.00 | 81 | 1006.1 |
| 20260505165523 | 62 | 121 | 2.6 | 8.7 | 0.00 | 0.00 | 0.00 | 80 | 1006.0 |
| 20260505165023 | 62 | 85 | 1.7 | 7.8 | 0.00 | 0.00 | 0.00 | 79 | 1006.1 |
| 20260505164523 | 63 | 340 | 1.7 | 7.0 | 0.00 | 0.00 | 0.00 | 78 | 1005.9 |
| 20260505164024 | 63 | 89 | 1.7 | 9.6 | 0.00 | 0.00 | 0.00 | 77 | 1006.0 |
| 20260505163522 | 64 | 253 | 1.7 | 9.6 | 0.00 | 0.00 | 0.00 | 77 | 1006.0 |
| 20260505163029 | 64 | 22 | 2.6 | 9.6 | 0.00 | 0.00 | 0.00 | 76 | 1006.0 |
| 20260505162521 | 65 | 84 | 1.7 | 8.7 | 0.00 | 0.00 | 0.00 | 76 | 1006.1 |
| 20260505162021 | 65 | 33 | 2.6 | 8.7 | 0.00 | 0.00 | 0.00 | 75 | 1006.1 |
| 20260505161520 | 65 | 127 | 0.9 | 8.7 | 0.00 | 0.00 | 0.00 | 76 | 1006.2 |
| 20260505161020 | 65 | 71 | 1.7 | 8.7 | 0.00 | 0.00 | 0.00 | 75 | 1006.4 |
| 20260505160520 | 65 | 39 | 3.5 | 7.8 | 0.00 | 0.00 | 0.00 | 75 | 1006.2 |
| 20260505153021 | 66 | 81 | 1.7 | 7.8 | 0.00 | 0.00 | 0.00 | 74 | 1006.5 |
| 20260505152516 | 66 | 106 | 2.6 | 7.8 | 0.00 | 0.00 | 0.00 | 73 | 1006.4 |
| 20260505152017 | 66 | 88 | 0.9 | 10.4 | 0.00 | 0.00 | 0.00 | 74 | 1006.5 |
| 20260505151519 | 67 | 92 | 2.6 | 10.4 | 0.00 | 0.00 | 0.00 | 73 | 1006.6 |
| 20260505151015 | 67 | 82 | 2.6 | 10.4 | 0.00 | 0.00 | 0.00 | 72 | 1006.7 |
| 20260505150518 | 67 | 93 | 2.6 | 10.4 | 0.00 | 0.00 | 0.00 | 72 | 1006.7 |
| 20260505140512 | 67 | 94 | 2.6 | 9.6 | 0.00 | 0.00 | 0.00 | 68 | 1007.0 |
| 20260505125008 | 67 | 118 | 0.9 | 6.1 | 0.00 | 0.00 | 0.00 | 67 | 1007.4 |
| 20260505124510 | 67 | 56 | 1.7 | 7.0 | 0.00 | 0.00 | 0.00 | 67 | 1007.4 |
| 20260505124008 | 67 | 28 | 2.6 | 7.0 | 0.00 | 0.00 | 0.00 | 66 | 1007.4 |
| 20260505123507 | 67 | 192 | 0.9 | 7.0 | 0.00 | 0.00 | 0.00 | 66 | 1007.4 |
| 20260505123006 | 68 | 93 | 1.7 | 7.0 | 0.00 | 0.00 | 0.00 | 65 | 1007.3 |
| 20260505122507 | 69 | 108 | 2.6 | 7.0 | 0.00 | 0.00 | 0.00 | 66 | 1007.3 |
| 20260505122006 | 69 | 76 | 1.7 | 7.8 | 0.00 | 0.00 | 0.00 | 65 | 1007.3 |
| 20260505121512 | 69 | 67 | 2.6 | 7.8 | 0.00 | 0.00 | 0.00 | 64 | 1007.3 |
| 20260505121006 | 69 | 101 | 0.0 | 5.2 | 0.00 | 0.00 | 0.00 | 64 | 1007.3 |
| 20260505120508 | 69 | 259 | 0.0 | 6.1 | 0.00 | 0.00 | 0.00 | 63 | 1007.3 |
| 20260505120006 | 70 | 46 | 0.0 | 6.1 | 0.00 | 0.00 | 0.00 | 63 | 1007.4 |
| 20260505115504 | 71 | 126 | 0.9 | 5.2 | 0.00 | 0.00 | 0.00 | 63 | 1007.5 |
| 20260505115003 | 70 | 166 | 1.7 | 7.8 | 0.00 | 0.00 | 0.00 | 65 | 1007.3 |
| 20260505114504 | 70 | 107 | 0.9 | 7.8 | 0.00 | 0.00 | 0.00 | 65 | 1007.4 |
| 20260505114004 | 69 | 105 | 0.9 | 5.2 | 0.00 | 0.00 | 0.00 | 64 | 1007.3 |
| 20260505113501 | 69 | 123 | 0.0 | 5.2 | 0.00 | 0.00 | 0.00 | 65 | 1007.4 |
| 20260505113005 | 68 | 259 | 0.9 | 5.2 | 0.00 | 0.00 | 0.00 | 67 | 1007.5 |
| 20260505112603 | 68 | 194 | 0.0 | 5.2 | 0.00 | 0.00 | 0.00 | 64 | 1007.7 |
| 20260505112059 | 69 | 88 | 0.9 | 5.2 | 0.00 | 0.00 | 0.00 | 65 | 1007.6 |
| 20260505111559 | 70 | 205 | 0.9 | 6.1 | 0.00 | 0.00 | 0.00 | 65 | 1007.6 |
| 20260505111059 | 70 | 215 | 0.0 | 6.1 | 0.00 | 0.00 | 0.00 | 64 | 1007.6 |
| 20260505110558 | 70 | 243 | 3.5 | 7.8 | 0.00 | 0.00 | 0.00 | 64 | 1007.7 |
| 20260505102051 | 68 | 78 | 0.9 | 5.2 | 0.00 | 0.00 | 0.00 | 67 | 1008.0 |
| 20260505101555 | 68 | 273 | 0.0 | 3.5 | 0.00 | 0.00 | 0.00 | 66 | 1008.0 |
| 20260505101048 | 67 | 83 | 0.0 | 3.5 | 0.00 | 0.00 | 0.00 | 66 | 1008.0 |
| 20260505100548 | 67 | 272 | 0.9 | 4.3 | 0.00 | 0.00 | 0.00 | 67 | 1008.0 |
| 20260505100047 | 67 | 67 | 0.9 | 4.3 | 0.00 | 0.00 | 0.00 | 68 | 1007.9 |
| 20260505095547 | 67 | 90 | 2.6 | 4.3 | 0.00 | 0.00 | 0.00 | 67 | 1008.1 |
| 20260505095046 | 66 | 76 | 0.0 | 2.6 | 0.00 | 0.00 | 0.00 | 68 | 1008.2 |
| 20260505094545 | 66 | 240 | 0.9 | 2.6 | 0.00 | 0.00 | 0.00 | 69 | 1008.2 |
| 20260505094045 | 66 | 244 | 0.9 | 6.1 | 0.00 | 0.00 | 0.00 | 71 | 1008.3 |
| 20260505093544 | 66 | 230 | 1.7 | 6.1 | 0.00 | 0.00 | 0.00 | 71 | 1008.4 |
| 20260505093045 | 66 | 242 | 1.7 | 4.3 | 0.00 | 0.00 | 0.00 | 70 | 1008.4 |
| 20260505092543 | 66 | 240 | 0.0 | 6.1 | 0.00 | 0.00 | 0.00 | 70 | 1008.4 |
| 20260505092044 | 66 | 309 | 2.6 | 6.1 | 0.00 | 0.00 | 0.00 | 69 | 1008.3 |
| 20260505091543 | 66 | 208 | 0.9 | 4.3 | 0.00 | 0.00 | 0.00 | 70 | 1008.4 |
| 20260505091043 | 65 | 289 | 0.9 | 7.0 | 0.00 | 0.00 | 0.00 | 73 | 1008.5 |
| 20260505090539 | 64 | 254 | 2.6 | 7.8 | 0.00 | 0.00 | 0.00 | 73 | 1008.4 |
| 20260505090054 | 64 | 226 | 2.6 | 7.8 | 0.00 | 0.00 | 0.00 | 75 | 1008.6 |
| 20260505085538 | 64 | 244 | 2.6 | 7.0 | 0.00 | 0.00 | 0.00 | 77 | 1008.5 |
| 20260505085037 | 64 | 161 | 0.9 | 6.1 | 0.00 | 0.00 | 0.00 | 75 | 1008.6 |
| 20260505084540 | 63 | 195 | 2.6 | 7.8 | 0.00 | 0.00 | 0.00 | 75 | 1008.7 |
| 20260505084036 | 63 | 265 | 3.5 | 7.8 | 0.00 | 0.00 | 0.00 | 75 | 1008.7 |
| 20260505083533 | 63 | 272 | 2.6 | 6.1 | 0.00 | 0.00 | 0.00 | 75 | 1008.6 |
| 20260505083036 | 63 | 222 | 1.7 | 4.3 | 0.00 | 0.00 | 0.00 | 76 | 1008.8 |
| 20260505082532 | 62 | 299 | 1.7 | 6.1 | 0.00 | 0.00 | 0.00 | 76 | 1008.7 |
| 20260505082031 | 62 | 270 | 0.9 | 6.1 | 0.00 | 0.00 | 0.00 | 77 | 1008.8 |
| 20260505081535 | 61 | 236 | 0.0 | 4.3 | 0.00 | 0.00 | 0.00 | 80 | 1008.7 |
| 20260505081034 | 61 | 189 | 1.7 | 4.3 | 0.00 | 0.00 | 0.00 | 77 | 1008.7 |
| 20260505080530 | 62 | 209 | 0.0 | 6.1 | 0.00 | 0.00 | 0.00 | 78 | 1008.8 |
| 20260505080030 | 62 | 237 | 2.6 | 6.1 | 0.00 | 0.00 | 0.00 | 75 | 1008.8 |
| 20260505075532 | 62 | 230 | 0.9 | 3.5 | 0.00 | 0.00 | 0.00 | 79 | 1008.8 |
| 20260505075028 | 61 | 155 | 0.9 | 4.3 | 0.00 | 0.00 | 0.00 | 76 | 1008.7 |
| 20260505074527 | 61 | 192 | 0.9 | 4.3 | 0.00 | 0.00 | 0.00 | 78 | 1008.7 |
| 20260505074027 | 61 | 189 | 1.7 | 4.3 | 0.00 | 0.00 | 0.00 | 77 | 1008.9 |
| 20260505073527 | 61 | 150 | 1.7 | 4.3 | 0.00 | 0.00 | 0.00 | 76 | 1008.9 |
| 20260505073035 | 61 | 171 | 0.9 | 3.5 | 0.00 | 0.00 | 0.00 | 77 | 1008.9 |
| 20260505072524 | 61 | 236 | 0.9 | 3.5 | 0.00 | 0.00 | 0.00 | 82 | 1009.0 |
| 20260505072024 | 60 | 173 | 0.0 | 3.5 | 0.00 | 0.00 | 0.00 | 81 | 1008.9 |
| 20260505071524 | 59 | 168 | 0.0 | 2.6 | 0.00 | 0.00 | 0.00 | 81 | 1009.0 |
| 20260505071025 | 59 | 168 | 0.9 | 2.6 | 0.00 | 0.00 | 0.00 | 83 | 1008.9 |
| 20260505070525 | 58 | 167 | 0.0 | 0.0 | 0.00 | 0.00 | 0.00 | 84 | 1008.9 |
| 20260505070022 | 57 | 167 | 0.0 | 0.0 | 0.00 | 0.00 | 0.00 | 84 | 1009.0 |
| 20260505065521 | 57 | 167 | 0.0 | 0.0 | 0.00 | 0.00 | 0.00 | 85 | 1009.2 |
| 20260505065021 | 56 | 167 | 0.0 | 0.0 | 0.00 | 0.00 | 0.00 | 85 | 1009.1 |
| 20260505064524 | 56 | 167 | 0.0 | 0.0 | 0.00 | 0.00 | 0.00 | 86 | 1009.2 |
| 20260505064020 | 56 | 167 | 0.0 | 0.0 | 0.00 | 0.00 | 0.00 | 85 | 1009.3 |
| 20260505063519 | 56 | 230 | 0.0 | 0.0 | 0.00 | 0.00 | 0.00 | 86 | 1009.2 |
| 20260505063018 | 56 | 230 | 0.0 | 0.9 | 0.00 | 0.00 | 0.00 | 86 | 1009.2 |
| 20260505062523 | 56 | 230 | 0.0 | 6.1 | 0.00 | 0.00 | 0.00 | 85 | 1009.1 |
| 20260505062016 | 56 | 230 | 1.7 | 6.1 | 0.00 | 0.00 | 0.00 | 84 | 1009.2 |
| 20260505061516 | 56 | 196 | 0.0 | 2.6 | 0.00 | 0.00 | 0.00 | 84 | 1009.2 |
| 20260505061018 | 56 | 196 | 0.0 | 2.6 | 0.00 | 0.00 | 0.00 | 84 | 1009.3 |
| 20260505060516 | 56 | 178 | 0.0 | 1.7 | 0.00 | 0.00 | 0.00 | 83 | 1009.3 |
| 20260505060025 | 56 | 178 | 0.0 | 1.7 | 0.00 | 0.00 | 0.00 | 83 | 1009.3 |
| 20260505055514 | 57 | 178 | 0.0 | 1.7 | 0.00 | 0.00 | 0.00 | 84 | 1009.2 |
| 20260505055014 | 57 | 268 | 0.0 | 0.0 | 0.00 | 0.00 | 0.00 | 83 | 1009.2 |
| 20260505054525 | 57 | 360 | 0.0 | 0.0 | 0.00 | 0.00 | 0.00 | 85 | 1008.9 |
| 20260505054014 | 56 | 360 | 0.0 | 0.0 | 0.00 | 0.00 | 0.00 | 83 | 1008.9 |
| 20260505053512 | 56 | 360 | 0.0 | 0.0 | 0.00 | 0.00 | 0.00 | 83 | 1008.9 |
| 20260505053011 | 56 | 360 | 0.0 | 0.0 | 0.00 | 0.00 | 0.00 | 82 | 1008.9 |
| 20260505052510 | 55 | 360 | 0.0 | 0.0 | 0.00 | 0.00 | 0.00 | 82 | 1008.8 |
| 20260505052011 | 55 | 360 | 0.0 | 0.0 | 0.00 | 0.00 | 0.00 | 83 | 1009.0 |
| 20260505051509 | 55 | 360 | 0.0 | 0.0 | 0.00 | 0.00 | 0.00 | 82 | 1009.0 |
| 20260505051007 | 55 | 360 | 0.0 | 0.0 | 0.00 | 0.00 | 0.00 | 82 | 1008.9 |
| 20260505050508 | 55 | 360 | 0.0 | 0.0 | 0.00 | 0.00 | 0.00 | 81 | 1008.9 |
| 20260505041559 | 56 | 355 | 0.0 | 0.0 | 0.00 | 0.00 | 0.00 | 77 | 1008.8 |
| 20260505041059 | 56 | 355 | 0.0 | 0.0 | 0.00 | 0.00 | 0.00 | 77 | 1009.0 |
| 20260505040601 | 56 | 349 | 0.0 | 0.0 | 0.00 | 0.00 | 0.00 | 77 | 1008.9 |